Regional Weather Roundup
Issued by NWS

Home | Current Version | Previous Version | Text Only | Print | Product List | Glossary Off
Versions: 1 2 3 4 5 6 7 8 9 10 11 12 13 14 15 16 17 18 19 20 21 22 23 24 25 26 27

000
ASUS45 KCYS 242010
RWRWY

WYOMING REGIONAL WEATHER ROUNDUP
NATIONAL WEATHER SERVICE CHEYENNE WY
200 PM MDT THU APR 24 2014

NOTE:  "FAIR" INDICATES FEW OR NO CLOUDS BELOW 12,000 FEET
WITH NO SIGNIFICANT WEATHER AND/OR OBSTRUCTIONS TO VISIBILITY.

WYZ001-242100-
YELLOWSTONE NATIONAL PARK

CITY           SKY/WX    TMP DP  RH WIND       PRES   REMARKS
LK YELLOWSTONE   N/A     35  26  69 VRB6      29.95F WCI  30
W YELLOWSTONE  NOT AVBL

$$
WYZ002>013-054>058-071-098>099-242100-
NORTHERN WYOMING

CITY           SKY/WX    TMP DP  RH WIND       PRES   REMARKS
JACKSON        CLOUDY    43  30  61 S21       29.98F
CODY           CLOUDY    54  23  30 W12G18    29.80F
GREYBULL       MOSUNNY   61  15  16 S12G20    29.78F
WORLAND        MOSUNNY   60  17  18 W5        29.78F
SHERIDAN         N/A     48  19  32 W25G35      N/A
BUFFALO        MOSUNNY   57  20  23 NE6       29.80F
GILLETTE       SUNNY     60  20  21 W10G17    29.79F
HULETT         FAIR      57  23  26 SW12G21   29.83
NEWCASTLE      FAIR      59  14  17 W14G28    29.82

$$
WYZ014>020-022>026-101>103-242100-
CENTRAL WYOMING

CITY           SKY/WX    TMP DP  RH WIND       PRES   REMARKS
BIG PINEY      CLOUDY    50  20  30 W20       29.98F
PINEDALE       CLOUDY    45  21  39 W13       29.98F
DUBOIS         MOCLDY    45  21  39 NW18G30   29.90S
LANDER           N/A     58  22  24 N8        29.83F
RIVERTON       MOSUNNY   56  15  20 CALM      29.84F
CASPER         SUNNY     59  19  21 W25G40    29.85F
DOUGLAS        SUNNY     61  18  18 W22G29    29.85F

$$
WYZ021-027>030-104>119-242100-
SOUTHERN WYOMING

CITY           SKY/WX    TMP DP  RH WIND       PRES   REMARKS
EVANSTON       PTSUNNY   54  23  30 W22G30    30.01F
KEMMERER       CLOUDY    48  21  34 W29G36    30.00F
FORT BRIDGER   FAIR      55  22  27 W25G35    30.03S
ROCK SPRINGS   NOT AVBL
DIXON          FAIR      54  17  23 SW15G21   30.05F
RAWLINS        PTSUNNY   53  13  20 SW21G39   29.96F
SARATOGA       FAIR      48  14  25 W20G25    30.02F
LARAMIE        PTSUNNY   53  15  22 W23G31    29.93F
CHEYENNE       PTSUNNY   57  15  19 W22G32    29.91F
TORRINGTON     PTSUNNY   61  17  18 W10G25    29.86F
PINE BLUFFS    FAIR      59  18  20 W15G21    29.91F

$$



USA.gov is the U.S. government's official web portal to all federal, state and local government web resources and services.